MINXSS

Last updated on Sat May 06 2017 01:15:04 GMT+0100 (British Summer Time)

1 41474U 98067HU 17125.52237589 .05724416 12300-4 86147-3 0 9995 2 41474 51.6449 208.6967 0008167 329.0747 30.9230 16.33400422 55623

Satellite not in orbit